Regional Weather Roundup
Issued by NWS

Home | Current Version | Previous Version | Graphics & Text | Print | Product List | Glossary On
Versions: 1 2 3 4 5 6 7 8 9 10 11 12 13 14 15 16 17 18 19 20 21 22 23 24 25 26 27 28 29 30 31 32 33 34 35 36 37 38 39 40 41 42 43 44 45 46 47 48 49 50
220
ASUS43 KMKX 241121
RWRWI

WISCONSIN REGIONAL WEATHER ROUNDUP
NATIONAL WEATHER SERVICE MILWAUKEE/SULLIVAN WI
500 AM CST FRI FEB 24 2017

NOTE: "FAIR" INDICATES FEW OR NO CLOUDS BELOW 12,000 FEET WITH NO
SIGNIFICANT WEATHER AND/OR OBSTRUCTIONS TO VISIBILITY.

WIZ001-002-006>008-014>016-023>028-241200-
NORTHWEST WISCONSIN

CITY           SKY/WX    TMP DP  RH WIND       PRES   REMARKS
SUPERIOR ARPT  CLOUDY    23  14  68 NE12G18   29.98R WCI  12
ASHLAND        CLOUDY    25  17  72 NE18      29.94R WCI  11
HAYWARD        CLOUDY    26  20  77 NE20G26   29.88R WCI  12
SIREN          CLOUDY    25  16  69 N10G20    29.91R WCI  15
CUMBERLAND     CLOUDY    27  18  69 N14       29.85R WCI  15
RICE LAKE      CLOUDY    29  20  71 N15       29.86R WCI  17
CHETEK         LGT SNOW  28  21  74 N7        29.85R WCI  21
LADYSMITH      CLOUDY    29  21  71 N15       29.84R WCI  18
EAU CLAIRE     HVY SNOW  28  26  92 N10       29.80F VSB 1/4 WCI  19
MENOMONIE      SNOW      28  27  97 N13       29.81F VSB 1/2 WCI  17
NEW RICHMOND   CLOUDY    27  18  67 NE17      29.84F WCI  15
OSCEOLA        CLOUDY    27  18  70 N13       29.89F WCI  16
$$

WIZ003>005-009-010-017-018-241200-
NORTH CENTRAL WISCONSIN

CITY           SKY/WX    TMP DP  RH WIND       PRES   REMARKS
MANITOWISH WTR CLOUDY    23  23 100 NE13G21   29.82R WCI  12
ARBOR VITAE    CLOUDY    27  25  92 NE10G16     N/A  WCI  17
WOODRUFF       CLOUDY    27  25  92 NE10G16     N/A  WCI  17
RHINELANDER    LGT SNOW  27  25  92 NE12G20   29.75R VSB 3/4 WCI  17
EAGLE RIVER    CLOUDY    25  24  93 NE12G17   29.80R WCI  15
LAND O LAKES   CLOUDY    24  23  96 NE12G22   29.83R WCI  13
PHILLIPS       CLOUDY    26  21  83 N15G23    29.76F WCI  13
TOMAHAWK       LGT SNOW  26  24  91 N9G17     29.73F VSB 1   WCI  17
MEDFORD        MIX PCPN  26  24  92 W7        29.83R WCI  18
MERRILL        NOT AVBL
$$

WIZ029-030-035-036-043>047-241200-
CENTRAL WISCONSIN

CITY           SKY/WX    TMP DP  RH WIND       PRES   REMARKS
WAUSAU         LGT SNOW  27  24  89 NE13G18   29.67S FOG     WCI  16
MOSINEE        CLOUDY    28  28 100 NE15G22   29.66F WCI  17
MARSHFIELD     TSTM      27  25  92 N10       29.75R VSB 3/4 WCI  17
STEVENS POINT  MIX PCPN  26  25  95 NE18G29   29.65F WCI  13
WAUPACA        LGT SNOW  31  28  88 NE13G18   29.68F WCI  21
WAUTOMA        FLURRIES  29  26  89 NE23G31   29.62F WCI  15
WISC RAPIDS    MIX PCPN  29  26  89 NE14      29.73R FOG     WCI  18
CAMP DOUGLAS   LGT SNOW  29  27  89 VRB6      29.72R FOG     WCI  23
$$

WIZ011>013-019>022-031-037>040-048>050-241200-
NORTHEAST WISCONSIN

CITY           SKY/WX    TMP DP  RH WIND       PRES   REMARKS
ANTIGO         LGT SNOW  26  24  91 NE22      29.70F WCI  12
SHAWANO        LGT SNOW  30  28  90 NE17G26   29.72F VSB 1   WCI  18
OCONTO         CLOUDY    29  27  93 E15G26    29.75F WCI  17
STURGEON BAY   LGT SNOW  29  28  96 NE20G26   29.74F FOG     WCI  16
GREEN BAY      LGT SNOW  30  30 100 NE28G41   29.68F VSB 1   WCI  15
MANITOWOC      LGT SNOW  32  29  88 NE17G26   29.68F FOG     WCI  21
APPLETON       DRIZZLE   30  28  93 NE21G33   29.65F WCI  17
CLINTONVILLE   LGT SNOW  30  28  93 NE14G22   29.70F WCI  20
OSHKOSH        CLOUDY    31  27  85 NE18G29   29.64F WCI  19
$$

WIZ032>034-041-042-053>061-241200-
SOUTHWEST WISCONSIN

CITY           SKY/WX    TMP DP  RH WIND       PRES   REMARKS
LA CROSSE      LGT SNOW  32  31  96 N10       29.71S VSB 1   WCI  24
SPARTA         CLOUDY    30  30  99 N8        29.73F WCI  23
VIROQUA        CLOUDY    30  29  98 N17       29.65S WCI  18
BOSCOBEL       MIX PCPN  33  31  92 NE8       29.62F FOG     WCI  26
PRAIRIE DU CHI MIX PCPN  32  32  99 N9        29.62F WCI  24
PLATTEVILLE    CLOUDY    33  33 100 NE15      29.56R WCI  23
$$

WIZ056-057-062-063-064-067-068-241200-
SOUTH CENTRAL WISCONSIN

CITY           SKY/WX    TMP DP  RH WIND       PRES   REMARKS
REEDSBURG      LGT SNOW  29  29 100 NE15G23   29.65R WCI  18
BARABOO/DELLS  MIX PCPN  30  28  93 NE8G23    29.64R WCI  23
LONE ROCK      FRZ RAIN  33  30  88 NE12      29.63R FOG     WCI  24
MINERAL POINT  LGT RAIN  34  34 100 NE8       29.56S WCI  27
MADISON        MIX PCPN  32  30  92 NE17G24   29.58F FOG     WCI  21
MIDDLETON      CLOUDY    34  33  98 E16       29.58S WCI  23
WATERTOWN      MIX PCPN  33  33 100 NE18G24   29.56F WCI  22
MONROE         CLOUDY    32  32 100 NE18      29.53R WCI  20
JANESVILLE     CLOUDY    36  36 100 NE7       29.56R WCI  30
$$

WIZ051-052-058>065-066-070>072-241200-
SOUTHEAST WISCONSIN

CITY           SKY/WX    TMP DP  RH WIND       PRES   REMARKS
MILWAUKEE      TSTM      37  34  89 NE21G26   29.58F FOG     WCI  26
WAUKESHA       LGT SNOW  32  32 100 NE22G32   29.60S WCI  19
MILWAUKEE/TIMM LGT RAIN  32  32 100 NE14G29   29.61F WCI  22
RACINE         LGT SNOW  36  34  92 NE21      29.58F FOG     WCI  25
KENOSHA        LGT RAIN  37  35  92 NE17G30   29.56S FOG     WCI  27
FOND DU LAC    CLOUDY    33  27  78 NE25G31   29.63F WCI  20
SHEBOYGAN      CLOUDY    32  32 100 NE29G44   29.63F WCI  18
WEST BEND      LGT RAIN  32  32 100 NE20G26   29.60F WCI  20
JUNEAU         CLOUDY    32  30  92 NE12G20   29.60F THUNDER WCI  23
$$

LSZ147-162-241200-
LAKE SUPERIOR

STATION/POSITION TIME  TEMP    WIND        PRES    WAVE
                       AIR SEA DIR/SP/G            HT/PER
                 (UTC) (F)     (DEG/KT/KT) (MB)    (FT/S)
DEVILS ISLAND    1100   23      30/ 24/ 27 1016.2R
PORT WING        1030   26      40/ 21/ 26 1014.6S
SAXON HARBOR     1030   28      60/ 25/ 28 1012.5S
$$

LMZ867-665-643>646-241200-
LAKE MICHIGAN

STATION/POSITION TIME  TEMP    WIND        PRES    WAVE
                       AIR SEA DIR/SP/G            HT/PER
                 (UTC) (F)     (DEG/KT/KT) (MB)    (FT/S)
CHAMBERS ISLAND  0840   32      10/ 17/ 19 1010.8
NORTHPORT PIER   1104   29      50/ 20/ 26 1008.8
SISTER BAY       1035   29     360/ 12/ 19   N/A
KEWAUNEE LAKESHO 1054   31      60/ 21/ 30 1006.2F
SHEBOYGAN LAKESH 1100   33      30/ 33/ 37 1004.9F
PORT WASHINGTON  1040   35      40/ 22/ 31 1004.4F
MILWAUKEE LAKESH 1100   35      30/ 23/ 26   N/A
KENOSHA   LAKESH 1100   36      20/ 20/ 23 1001.0
$$

TC  - TEMPERATURE IN CELSIUS
VSB - VISIBILITY IN STATUTE MILES
WCI - WIND CHILL INDEX
HX  - HEAT INDEX





USA.gov is the U.S. government's official web portal to all federal, state and local government web resources and services.